KBDRKUUU

Guest
Details From KBDR - IGOR I SIKORSKY MEM
To KUUU - NEWPORT STATE
Flight Number -
Tags decoded
Created
Modified
Stats Distance 90 nm / 166 km
Max Altitude 0 ft / 0 m
Waypoints 3
Social Downloads 0
Likes 0
Share VATSIM

Download

Looking for another format? Having issues loading an existing format? Contact us
Advertisement - Login to hide

Notes

Requested: KBDR GOR MINNK KUUU Unmatched points: GOR

Route

KBDR MINNK KUUU

ID Type Via Altitude Latitude Longitude Leg Dist Tot Dist Heading (true) Name
O KBDR APT - 0 ft / 0 m 41.16435˚ -73.12620˚ - 0 nm - IGOR I SIKORSKY MEM
MINNK FIX - 0 ft / 0 m 41.36130˚ -71.42422˚ 77 nm 77 nm 81° / 82° -
O KUUU APT - 0 ft / 0 m 41.53252˚ -71.28159˚ 12 nm 89 nm 32° / 32° NEWPORT STATE

Altitude Profile

Advertisement - Login to hide

KBDR

Details ICAO KBDR (BDR)
Name IGOR I SIKORSKY MEM
Region United States
Timezone America/New_York (UTC-4.0)
Stats Elevation 9 ft / 3 m (AMSL)
Location 41.164347° -73.126199°
Runways 3
Magnetic Variation 13.421° W

METAR

KBDR 220552Z AUTO 22003KT 10SM CLR 15/12 A3016 RMK AO2 SLP212 T01500122 10189 20139 51004

Decode

TAF

KBDR 220540Z 2206/2306 VRB03KT P6SM BKN250 FM221300 16006KT P6SM BKN120 FM221800 13007KT 6SM -SHRA BKN040 OVC080 FM222200 08008KT 4SM -SHRA BR OVC012 FM230300 VRB03KT 2SM -SHRA BR OVC005

Decode

Departure Runways

ID Width Length Bearing (true) Bearing (mag) Surface Threshold Offset Overrun Length
06 150 ft / 46 m 4,675 ft / 1,425 m 44.90° 58.32° Asphalt 0 ft / 0 m 300 ft / 91 m
11 150 ft / 46 m 4,748 ft / 1,447 m 97.86° 111.28° Asphalt 0 ft / 0 m 300 ft / 91 m
17 150 ft / 46 m 3,392 ft / 1,034 m 162.99° 176.41° Asphalt 0 ft / 0 m 1,200 ft / 366 m
24 150 ft / 46 m 4,675 ft / 1,425 m 224.90° 238.32° Asphalt 319 ft / 97 m 0 ft / 0 m
29 150 ft / 46 m 4,748 ft / 1,447 m 277.87° 291.29° Asphalt 364 ft / 111 m 0 ft / 0 m
35 150 ft / 46 m 3,392 ft / 1,034 m 343.00° 356.42° Asphalt 0 ft / 0 m 300 ft / 91 m

KUUU

Details ICAO KUUU
Name NEWPORT STATE
Region United States
Timezone America/New_York (UTC-4.0)
Stats Elevation 171 ft / 52 m (AMSL)
Location 41.532518° -71.281594°
Runways 2
Magnetic Variation 14.326° W

METAR

KUUU 220553Z AUTO 21004KT 10SM CLR 13/10 A3015 RMK AO2 SLP208 T01280100 10150 20106 55002

Decode

TAF

Not found

Destination Runways

ID Width Length Bearing (true) Bearing (mag) Surface Threshold Offset Overrun Length
04 75 ft / 23 m 3,001 ft / 915 m 23.75° 38.08° Asphalt 0 ft / 0 m 0 ft / 0 m
16 75 ft / 23 m 2,625 ft / 800 m 143.62° 157.95° Asphalt 0 ft / 0 m 0 ft / 0 m
22 75 ft / 23 m 3,001 ft / 915 m 203.75° 218.08° Asphalt 0 ft / 0 m 0 ft / 0 m
34 75 ft / 23 m 2,625 ft / 800 m 323.62° 337.95° Asphalt 243 ft / 74 m 0 ft / 0 m

Popular Alternatives